RYR6R EGSS-LEAM

Flight info

Callsign RYR6R
Flight time 2h 25m
Altitude 35000
Route NUGBO M183 SILVA Q41 COWLY UT71 VAPID UN859 SOPIL DCT BALAN DCT LMG DCT PIMQO DCT AGN DCT ANETO N860 DOSEK
Aircraft B738/M-SDE2E3FGHIRWXY/LB1

Departure

Time 2026-04-23 16:37
Airport London Stansted Airport (EGSS)

Arrival

Time 2026-04-23 19:03
Airport Almería Airport (LEAM)
Time Latitude Longitude Altitude Speed Heading
2026-04-23 16:15 51.89407 0.25773 351 ft 0 kts 107°
2026-04-23 16:27 51.89413 0.25745 353 ft 4 kts 113°
2026-04-23 16:28 51.89426 0.25708 361 ft 4 kts 132°
2026-04-23 16:28 51.89444 0.25686 361 ft 4 kts 192°
2026-04-23 16:28 51.89454 0.25693 357 ft 1 kts 223°
2026-04-23 16:28 51.89455 0.25695 357 ft 0 kts 223°
2026-04-23 16:30 51.89452 0.25691 358 ft 2 kts 221°
2026-04-23 16:30 51.89428 0.25656 358 ft 7 kts 223°
2026-04-23 16:30 51.89372 0.25573 351 ft 15 kts 223°
2026-04-23 16:31 51.89270 0.25419 351 ft 24 kts 222°
2026-04-23 16:31 51.89126 0.25205 351 ft 32 kts 223°
2026-04-23 16:31 51.88963 0.24957 354 ft 32 kts 223°
2026-04-23 16:31 51.88807 0.24724 360 ft 22 kts 224°
2026-04-23 16:32 51.88718 0.24588 343 ft 18 kts 222°
2026-04-23 16:32 51.88628 0.24457 343 ft 17 kts 222°
2026-04-23 16:32 51.88541 0.24324 347 ft 17 kts 223°
2026-04-23 16:32 51.88452 0.24186 337 ft 18 kts 222°
2026-04-23 16:33 51.88349 0.24036 338 ft 22 kts 222°
2026-04-23 16:33 51.88219 0.23842 336 ft 28 kts 223°
2026-04-23 16:33 51.88061 0.23603 335 ft 33 kts 224°
2026-04-23 16:33 51.87896 0.23357 334 ft 31 kts 223°
2026-04-23 16:34 51.87745 0.23127 334 ft 28 kts 229°
2026-04-23 16:34 51.87782 0.22903 334 ft 20 kts 262°
2026-04-23 16:34 51.87690 0.22751 335 ft 18 kts 223°
2026-04-23 16:34 51.87601 0.22617 334 ft 18 kts 223°
2026-04-23 16:35 51.87525 0.22495 328 ft 11 kts 238°
2026-04-23 16:35 51.87545 0.22392 326 ft 11 kts 313°
2026-04-23 16:35 51.87599 0.22298 323 ft 10 kts 321°
2026-04-23 16:35 51.87655 0.22244 325 ft 8 kts 331°
2026-04-23 16:36 51.87691 0.22264 325 ft 0 kts 44°
2026-04-23 16:36 51.87715 0.22304 323 ft 24 kts 46°
2026-04-23 16:37 51.87995 0.22723 330 ft 86 kts 43°
2026-04-23 16:37 51.88573 0.23588 337 ft 137 kts 42°
2026-04-23 16:37 51.89076 0.24346 420 ft 157 kts 43°
2026-04-23 16:37 51.90092 0.25876 1194 ft 158 kts 43°
2026-04-23 16:38 51.90818 0.26859 1804 ft 156 kts 44°
2026-04-23 16:38 51.91677 0.28153 2060 ft 182 kts 46°
2026-04-23 16:38 51.92718 0.29526 2275 ft 207 kts 30°
2026-04-23 16:38 51.94199 0.30053 2470 ft 234 kts
2026-04-23 16:39 51.95830 0.29207 2759 ft 261 kts 328°
2026-04-23 16:39 51.96992 0.26896 3411 ft 273 kts 292°
2026-04-23 16:39 51.97415 0.23878 4117 ft 277 kts 278°
2026-04-23 16:39 51.97650 0.20767 4803 ft 278 kts 277°
2026-04-23 16:40 51.97803 0.18813 4976 ft 280 kts 277°
2026-04-23 16:40 51.98106 0.14950 4987 ft 283 kts 278°
2026-04-23 16:40 51.98400 0.11797 4998 ft 283 kts 279°
2026-04-23 16:40 51.98723 0.08642 5007 ft 283 kts 280°
2026-04-23 16:41 51.98919 0.06548 4995 ft 283 kts 274°
2026-04-23 16:41 51.98706 0.03408 5010 ft 280 kts 256°
2026-04-23 16:41 51.98269 0.00332 5007 ft 280 kts 257°
2026-04-23 16:41 51.98090 -0.00985 4988 ft 280 kts 257°
2026-04-23 16:42 51.97675 -0.04125 4979 ft 280 kts 256°
2026-04-23 16:42 51.97274 -0.07218 4986 ft 281 kts 257°
2026-04-23 16:42 51.96891 -0.10169 5301 ft 282 kts 256°
2026-04-23 16:42 51.96482 -0.13305 5939 ft 286 kts 257°
2026-04-23 16:43 51.96063 -0.16507 6714 ft 287 kts 257°
2026-04-23 16:43 51.95650 -0.19669 7445 ft 287 kts 257°
2026-04-23 16:43 51.95236 -0.22841 8136 ft 290 kts 258°
2026-04-23 16:43 51.94809 -0.26094 8719 ft 297 kts 258°
2026-04-23 16:44 51.94392 -0.29273 9466 ft 299 kts 258°
2026-04-23 16:44 51.93953 -0.32606 10101 ft 306 kts 258°
2026-04-23 16:44 51.93574 -0.35479 10732 ft 308 kts 258°
2026-04-23 16:44 51.93116 -0.38949 11059 ft 326 kts 258°
2026-04-23 16:45 51.92631 -0.42608 11220 ft 348 kts 258°
2026-04-23 16:45 51.92107 -0.46552 11403 ft 368 kts 258°
2026-04-23 16:45 51.91554 -0.50706 11558 ft 387 kts 258°
2026-04-23 16:45 51.90973 -0.55062 11752 ft 403 kts 258°
2026-04-23 16:46 51.90439 -0.59044 12126 ft 411 kts 258°
2026-04-23 16:46 51.89825 -0.63613 12598 ft 417 kts 258°
2026-04-23 16:46 51.89371 -0.66980 13052 ft 419 kts 258°
2026-04-23 16:46 51.88749 -0.71587 13641 ft 423 kts 257°
2026-04-23 16:47 51.88116 -0.76259 14229 ft 427 kts 257°
2026-04-23 16:47 51.87477 -0.80971 14765 ft 431 kts 257°
2026-04-23 16:47 51.86830 -0.85717 15375 ft 433 kts 257°
2026-04-23 16:47 51.86173 -0.90486 15988 ft 435 kts 256°
2026-04-23 16:48 51.85073 -0.95038 16533 ft 438 kts 236°
2026-04-23 16:48 51.83052 -0.98682 17123 ft 437 kts 217°
2026-04-23 16:48 51.81031 -1.00815 17595 ft 436 kts 205°
2026-04-23 16:48 51.78171 -1.02412 18096 ft 436 kts 188°
2026-04-23 16:49 51.75163 -1.03156 18619 ft 439 kts 185°
2026-04-23 16:49 51.72124 -1.03845 19086 ft 442 kts 186°
2026-04-23 16:49 51.69074 -1.04571 19583 ft 445 kts 186°
2026-04-23 16:49 51.66015 -1.05345 20070 ft 447 kts 187°
2026-04-23 16:50 51.62936 -1.06141 20528 ft 450 kts 186°
2026-04-23 16:50 51.59817 -1.06606 20961 ft 450 kts 178°
2026-04-23 16:50 51.56684 -1.06432 21433 ft 451 kts 175°
2026-04-23 16:50 51.53542 -1.06166 21856 ft 454 kts 175°
2026-04-23 16:51 51.50373 -1.05911 22252 ft 458 kts 175°
2026-04-23 16:51 51.47178 -1.05688 22646 ft 461 kts 176°
2026-04-23 16:51 51.43965 -1.05494 23056 ft 463 kts 176°
2026-04-23 16:51 51.40734 -1.05315 23457 ft 465 kts 175°
2026-04-23 16:52 51.37488 -1.05137 23821 ft 468 kts 175°
2026-04-23 16:52 51.34398 -1.04966 24108 ft 471 kts 176°
2026-04-23 16:52 51.31290 -1.04802 24347 ft 475 kts 177°
2026-04-23 16:52 51.27970 -1.04559 24567 ft 479 kts 173°
2026-04-23 16:53 51.24691 -1.03643 24838 ft 479 kts 164°
2026-04-23 16:53 51.21523 -1.02003 25120 ft 479 kts 155°
2026-04-23 16:53 51.18530 -0.99652 25297 ft 481 kts 147°
2026-04-23 16:53 51.15644 -0.96910 25550 ft 484 kts 146°
2026-04-23 16:54 51.12759 -0.94128 25851 ft 484 kts 147°
2026-04-23 16:54 51.09944 -0.91422 26918 ft 463 kts 148°
2026-04-23 16:54 51.07210 -0.88817 27686 ft 455 kts 148°
2026-04-23 16:54 51.04677 -0.86422 27875 ft 460 kts 148°
2026-04-23 16:55 51.01918 -0.83831 28060 ft 464 kts 148°
2026-04-23 16:55 50.99169 -0.81261 28252 ft 467 kts 148°
2026-04-23 16:55 50.96355 -0.78642 28888 ft 459 kts 148°
2026-04-23 16:55 50.93633 -0.76115 29204 ft 460 kts 148°
2026-04-23 16:56 50.90867 -0.73548 29425 ft 463 kts 149°
2026-04-23 16:56 50.88067 -0.70953 29450 ft 470 kts 149°
2026-04-23 16:56 50.85236 -0.68332 29643 ft 472 kts 149°
2026-04-23 16:56 50.82416 -0.65726 30090 ft 468 kts 149°
2026-04-23 16:57 50.79608 -0.63134 30508 ft 466 kts 149°
2026-04-23 16:57 50.76813 -0.60557 30849 ft 464 kts 149°
2026-04-23 16:57 50.74031 -0.57996 31203 ft 463 kts 149°
2026-04-23 16:57 50.71254 -0.55443 31566 ft 461 kts 149°
2026-04-23 16:58 50.68481 -0.52897 31931 ft 460 kts 149°
2026-04-23 16:58 50.65720 -0.50365 32309 ft 459 kts 149°
2026-04-23 16:58 50.62967 -0.47845 32654 ft 458 kts 149°
2026-04-23 16:58 50.60206 -0.45320 32933 ft 460 kts 149°
2026-04-23 16:59 50.54606 -0.40209 33198 ft 469 kts 149°
2026-04-23 16:59 50.48900 -0.35017 33426 ft 478 kts 149°
2026-04-23 17:00 50.46010 -0.32393 33545 ft 482 kts 149°
2026-04-23 17:00 50.43093 -0.29747 33596 ft 487 kts 149°
2026-04-23 17:00 50.40150 -0.27083 33744 ft 490 kts 149°
2026-04-23 17:00 50.37177 -0.24395 33878 ft 494 kts 149°
2026-04-23 17:01 50.34210 -0.21717 34248 ft 490 kts 150°
2026-04-23 17:01 50.31281 -0.19077 34827 ft 482 kts 149°
2026-04-23 17:01 50.28417 -0.16499 35192 ft 479 kts 150°
2026-04-23 17:01 50.25524 -0.13898 35333 ft 481 kts 150°
2026-04-23 17:02 50.19690 -0.08663 35673 ft 483 kts 149°
2026-04-23 17:02 50.16771 -0.06049 35871 ft 484 kts 150°
2026-04-23 17:02 50.13849 -0.03437 36131 ft 483 kts 150°
2026-04-23 17:03 50.10927 -0.00915 36549 ft 477 kts 154°
2026-04-23 17:03 50.08118 0.00884 37173 ft 467 kts 162°
2026-04-23 17:03 50.04988 0.02217 37291 ft 465 kts 166°
2026-04-23 17:03 50.01854 0.03392 37317 ft 462 kts 167°
2026-04-23 17:04 49.95622 0.05692 37314 ft 467 kts 166°
2026-04-23 17:04 49.89225 0.08144 37327 ft 473 kts 166°
2026-04-23 17:05 49.82881 0.10623 37304 ft 474 kts 166°
2026-04-23 17:05 49.76462 0.13130 37297 ft 476 kts 166°
2026-04-23 17:06 49.70023 0.15632 37278 ft 477 kts 166°
2026-04-23 17:06 49.63582 0.18177 37263 ft 478 kts 165°
2026-04-23 17:07 49.57627 0.20606 37259 ft 478 kts 165°
2026-04-23 17:07 49.51189 0.23225 37258 ft 478 kts 166°
2026-04-23 17:08 49.44755 0.25820 37268 ft 478 kts 166°
2026-04-23 17:08 49.38316 0.28407 37266 ft 478 kts 166°
2026-04-23 17:09 49.31892 0.30982 37267 ft 479 kts 166°
2026-04-23 17:09 49.25454 0.33634 37264 ft 479 kts 165°
2026-04-23 17:10 49.19037 0.36353 37269 ft 479 kts 165°
2026-04-23 17:10 49.12625 0.39058 37267 ft 478 kts 165°
2026-04-23 17:11 49.06205 0.41746 37239 ft 480 kts 165°
2026-04-23 17:11 48.99820 0.44406 37287 ft 485 kts 165°
2026-04-23 17:12 48.93274 0.47128 37266 ft 490 kts 165°
2026-04-23 17:12 48.86707 0.49852 37251 ft 490 kts 165°
2026-04-23 17:13 48.80144 0.52568 37240 ft 489 kts 165°
2026-04-23 17:13 48.73562 0.55207 37245 ft 490 kts 166°
2026-04-23 17:14 48.66953 0.57763 37245 ft 490 kts 166°
2026-04-23 17:14 48.60341 0.60331 37234 ft 491 kts 166°
2026-04-23 17:15 48.53718 0.62909 37247 ft 492 kts 166°
2026-04-23 17:15 48.47093 0.65540 37234 ft 493 kts 165°
2026-04-23 17:16 48.40478 0.68250 37224 ft 493 kts 165°
2026-04-23 17:16 48.33845 0.70950 37239 ft 495 kts 166°
2026-04-23 17:17 48.27236 0.73619 37224 ft 495 kts 166°
2026-04-23 17:17 48.20546 0.76291 37203 ft 494 kts 166°
2026-04-23 17:18 48.10773 0.80123 37220 ft 496 kts 166°
2026-04-23 17:19 48.04214 0.82692 37209 ft 497 kts 166°
2026-04-23 17:19 47.97658 0.85258 37221 ft 496 kts 166°
2026-04-23 17:20 47.90985 0.87863 37201 ft 496 kts 166°
2026-04-23 17:21 47.77916 0.92941 37181 ft 496 kts 166°
2026-04-23 17:21 47.67890 0.96811 37188 ft 496 kts 166°
2026-04-23 17:22 47.58594 1.00388 37176 ft 497 kts 167°
2026-04-23 17:23 47.48544 1.04242 37175 ft 497 kts 166°
2026-04-23 17:24 47.38363 1.06520 37180 ft 493 kts 183°
2026-04-23 17:24 47.28072 1.06098 37164 ft 493 kts 184°
2026-04-23 17:25 47.18933 1.05852 37168 ft 494 kts 183°
2026-04-23 17:26 47.05195 1.05558 37163 ft 493 kts 183°
2026-04-23 17:27 46.94926 1.05209 37147 ft 493 kts 184°
2026-04-23 17:27 46.88088 1.04884 37151 ft 491 kts 184°
2026-04-23 17:28 46.81261 1.04575 37157 ft 491 kts 184°
2026-04-23 17:28 46.74435 1.04279 37153 ft 491 kts 184°
2026-04-23 17:29 46.67605 1.03986 37146 ft 491 kts 184°
2026-04-23 17:30 46.57358 1.03547 37148 ft 491 kts 184°
2026-04-23 17:30 46.47112 1.03185 37134 ft 491 kts 183°
2026-04-23 17:31 46.40289 1.03142 37133 ft 491 kts 182°
2026-04-23 17:31 46.33460 1.03110 37127 ft 490 kts 183°
2026-04-23 17:32 46.26642 1.03052 37131 ft 490 kts 183°
2026-04-23 17:32 46.19828 1.02983 37125 ft 489 kts 183°
2026-04-23 17:33 46.13025 1.02913 37124 ft 488 kts 183°
2026-04-23 17:33 46.06233 1.02845 37126 ft 488 kts 183°
2026-04-23 17:34 45.99980 1.02782 37125 ft 487 kts 183°
2026-04-23 17:35 45.89837 1.02682 37126 ft 487 kts 183°
2026-04-23 17:35 45.79679 1.02896 37119 ft 489 kts 174°
2026-04-23 17:36 45.72973 1.04622 37129 ft 490 kts 171°
2026-04-23 17:36 45.66284 1.06480 37112 ft 490 kts 171°
2026-04-23 17:37 45.59589 1.08246 37104 ft 489 kts 172°
2026-04-23 17:38 45.49536 1.10803 37115 ft 489 kts 172°
2026-04-23 17:38 45.42837 1.12499 37113 ft 489 kts 172°
2026-04-23 17:39 45.36177 1.14186 37103 ft 489 kts 172°
2026-04-23 17:39 45.29476 1.15880 37127 ft 489 kts 172°
2026-04-23 17:40 45.22771 1.17571 37127 ft 490 kts 172°
2026-04-23 17:40 45.16032 1.18873 37107 ft 487 kts 182°
2026-04-23 17:41 45.09351 1.17806 37135 ft 482 kts 194°
2026-04-23 17:41 44.99498 1.15126 37098 ft 483 kts 194°
2026-04-23 17:42 44.89627 1.12563 37091 ft 478 kts 193°
2026-04-23 17:43 44.83084 1.10900 37100 ft 478 kts 193°
2026-04-23 17:43 44.76538 1.09239 37098 ft 478 kts 193°
2026-04-23 17:44 44.69983 1.07577 37096 ft 479 kts 193°
2026-04-23 17:44 44.60142 1.05089 37082 ft 479 kts 193°
2026-04-23 17:45 44.50309 1.02612 37091 ft 479 kts 193°
2026-04-23 17:46 44.40557 1.00163 37078 ft 479 kts 193°
2026-04-23 17:46 44.34005 0.98522 37092 ft 478 kts 193°
2026-04-23 17:47 44.27459 0.96886 37091 ft 478 kts 193°
2026-04-23 17:48 44.17683 0.94451 37091 ft 477 kts 193°
2026-04-23 17:48 44.11142 0.92826 37094 ft 477 kts 193°
2026-04-23 17:49 44.04603 0.91204 37086 ft 477 kts 193°
2026-04-23 17:49 43.98402 0.89670 37083 ft 477 kts 193°
2026-04-23 17:50 43.91865 0.88056 37089 ft 477 kts 193°
2026-04-23 17:50 43.82076 0.85544 37072 ft 477 kts 194°
2026-04-23 17:51 43.75571 0.83775 37081 ft 476 kts 194°
2026-04-23 17:52 43.65812 0.81145 37084 ft 476 kts 194°
2026-04-23 17:52 43.56049 0.78543 37082 ft 476 kts 194°
2026-04-23 17:53 43.46286 0.75952 37059 ft 476 kts 194°
2026-04-23 17:54 43.39798 0.74235 37060 ft 474 kts 194°
2026-04-23 17:54 43.30102 0.71674 37063 ft 473 kts 194°
2026-04-23 17:55 43.20418 0.69124 37054 ft 472 kts 194°
2026-04-23 17:56 43.13961 0.67429 37066 ft 472 kts 194°
2026-04-23 17:56 43.04278 0.64894 37079 ft 472 kts 194°
2026-04-23 17:57 42.97968 0.63246 37083 ft 472 kts 194°
2026-04-23 17:58 42.88301 0.60728 37068 ft 471 kts 194°
2026-04-23 17:58 42.81881 0.59064 37057 ft 468 kts 194°
2026-04-23 17:59 42.75503 0.57408 37097 ft 468 kts 194°
2026-04-23 17:59 42.69091 0.55746 37114 ft 470 kts 194°
2026-04-23 18:00 42.62655 0.54094 37122 ft 472 kts 194°
2026-04-23 18:00 42.56198 0.52445 37121 ft 472 kts 194°
2026-04-23 18:01 42.50079 0.50884 37128 ft 470 kts 194°
2026-04-23 18:01 42.43777 0.49276 37130 ft 470 kts 194°
2026-04-23 18:02 42.38467 0.47924 37117 ft 470 kts 194°
2026-04-23 18:02 42.30958 0.46011 37120 ft 469 kts 194°
2026-04-23 18:03 42.24542 0.44371 37125 ft 469 kts 194°
2026-04-23 18:03 42.18162 0.42744 37113 ft 469 kts 194°
2026-04-23 18:04 42.11703 0.41101 37122 ft 469 kts 194°
2026-04-23 18:04 42.05340 0.39486 37110 ft 469 kts 194°
2026-04-23 18:05 41.98957 0.37868 37123 ft 468 kts 194°
2026-04-23 18:05 41.92588 0.36263 37110 ft 465 kts 193°
2026-04-23 18:06 41.86272 0.34677 37128 ft 464 kts 193°
2026-04-23 18:06 41.79876 0.33072 37126 ft 465 kts 193°
2026-04-23 18:07 41.73558 0.31491 37125 ft 465 kts 193°
2026-04-23 18:07 41.67200 0.29913 37121 ft 465 kts 193°
2026-04-23 18:08 41.61879 0.28598 37126 ft 464 kts 193°
2026-04-23 18:08 41.54488 0.26772 37110 ft 464 kts 193°
2026-04-23 18:09 41.48139 0.25206 37117 ft 464 kts 193°
2026-04-23 18:09 41.42008 0.23696 37113 ft 464 kts 193°
2026-04-23 18:10 41.36792 0.22414 37107 ft 464 kts 193°
2026-04-23 18:10 41.30764 0.20914 37104 ft 463 kts 194°
2026-04-23 18:11 41.24448 0.19313 37103 ft 462 kts 193°
2026-04-23 18:11 41.18132 0.17761 37112 ft 461 kts 193°
2026-04-23 18:12 41.11832 0.16142 37105 ft 460 kts 197°
2026-04-23 18:12 41.05719 0.13725 37101 ft 459 kts 200°
2026-04-23 18:13 40.99989 0.11322 37112 ft 459 kts 200°
2026-04-23 18:13 40.93966 0.08889 37109 ft 459 kts 199°
2026-04-23 18:14 40.87849 0.06459 37117 ft 459 kts 199°
2026-04-23 18:14 40.81740 0.04012 37118 ft 459 kts 200°
2026-04-23 18:15 40.75634 0.01551 37117 ft 459 kts 200°
2026-04-23 18:15 40.70670 -0.00445 37121 ft 459 kts 199°
2026-04-23 18:16 40.64573 -0.02890 37117 ft 457 kts 199°
2026-04-23 18:16 40.58484 -0.05326 37113 ft 457 kts 199°
2026-04-23 18:17 40.49353 -0.08952 37078 ft 457 kts 199°
2026-04-23 18:17 40.43298 -0.11338 37032 ft 457 kts 199°
2026-04-23 18:18 40.37207 -0.13737 37008 ft 457 kts 199°
2026-04-23 18:18 40.31118 -0.16132 36999 ft 457 kts 199°
2026-04-23 18:19 40.25025 -0.18525 36996 ft 457 kts 199°
2026-04-23 18:19 40.18940 -0.20927 37030 ft 457 kts 199°
2026-04-23 18:20 40.12878 -0.23325 37061 ft 457 kts 199°
2026-04-23 18:20 40.07214 -0.25560 37140 ft 457 kts 199°
2026-04-23 18:21 40.01126 -0.27956 37136 ft 457 kts 199°
2026-04-23 18:21 39.95333 -0.30205 37137 ft 455 kts 198°
2026-04-23 18:22 39.89275 -0.32531 37142 ft 454 kts 199°
2026-04-23 18:22 39.83664 -0.34706 37145 ft 454 kts 199°
2026-04-23 18:23 39.74582 -0.38245 37136 ft 454 kts 199°
2026-04-23 18:24 39.65511 -0.41765 37129 ft 454 kts 199°
2026-04-23 18:25 39.56444 -0.45273 37121 ft 453 kts 199°
2026-04-23 18:25 39.50396 -0.47608 37135 ft 453 kts 199°
2026-04-23 18:26 39.44667 -0.50883 37139 ft 450 kts 210°
2026-04-23 18:26 39.39184 -0.54791 37128 ft 450 kts 210°
2026-04-23 18:27 39.33684 -0.58671 37116 ft 450 kts 210°
2026-04-23 18:27 39.28333 -0.62394 37120 ft 450 kts 210°
2026-04-23 18:28 39.22811 -0.66216 37126 ft 450 kts 210°
2026-04-23 18:28 39.17292 -0.70030 37121 ft 450 kts 210°
2026-04-23 18:29 39.11774 -0.73840 37109 ft 450 kts 210°
2026-04-23 18:29 39.06293 -0.77616 37129 ft 448 kts 209°
2026-04-23 18:30 39.00812 -0.81387 37104 ft 440 kts 209°
2026-04-23 18:30 38.95531 -0.85017 37100 ft 431 kts 210°
2026-04-23 18:31 38.90282 -0.88621 37106 ft 430 kts 209°
2026-04-23 18:31 38.85008 -0.92236 37099 ft 430 kts 209°
2026-04-23 18:32 38.79724 -0.95852 37100 ft 431 kts 209°
2026-04-23 18:32 38.74538 -0.99395 37076 ft 433 kts 209°
2026-04-23 18:33 38.70909 -1.01869 37079 ft 433 kts 209°
2026-04-23 18:33 38.66370 -1.04958 37084 ft 434 kts 209°
2026-04-23 18:34 38.60995 -1.08613 37076 ft 436 kts 209°
2026-04-23 18:34 38.55642 -1.12247 37076 ft 437 kts 209°
2026-04-23 18:35 38.50414 -1.15792 37081 ft 437 kts 208°
2026-04-23 18:35 38.45043 -1.19426 37065 ft 437 kts 208°
2026-04-23 18:36 38.39668 -1.23058 37076 ft 437 kts 208°
2026-04-23 18:36 38.34296 -1.26681 37065 ft 437 kts 208°
2026-04-23 18:37 38.28958 -1.30275 37062 ft 437 kts 208°
2026-04-23 18:37 38.23592 -1.33883 37061 ft 436 kts 208°
2026-04-23 18:38 38.18226 -1.37484 37061 ft 436 kts 208°
2026-04-23 18:38 38.12870 -1.41072 37067 ft 435 kts 208°
2026-04-23 18:39 38.07552 -1.44630 37061 ft 435 kts 208°
2026-04-23 18:39 38.02199 -1.48204 37065 ft 435 kts 208°
2026-04-23 18:40 37.97027 -1.51653 37059 ft 434 kts 208°
2026-04-23 18:40 37.91682 -1.55212 37059 ft 434 kts 208°
2026-04-23 18:41 37.86321 -1.58731 37060 ft 433 kts 207°
2026-04-23 18:41 37.81007 -1.62167 37005 ft 435 kts 207°
2026-04-23 18:41 37.78296 -1.63919 36711 ft 440 kts 207°
2026-04-23 18:42 37.75595 -1.65664 36499 ft 432 kts 207°
2026-04-23 18:42 37.72933 -1.67385 36245 ft 430 kts 207°
2026-04-23 18:42 37.70261 -1.69113 35986 ft 433 kts 208°
2026-04-23 18:42 37.67568 -1.70853 35734 ft 436 kts 208°
2026-04-23 18:43 37.64872 -1.72594 35161 ft 432 kts 208°
2026-04-23 18:43 37.62207 -1.74314 34572 ft 430 kts 208°
2026-04-23 18:43 37.59534 -1.76037 33842 ft 432 kts 208°
2026-04-23 18:43 37.56854 -1.77764 33065 ft 434 kts 207°
2026-04-23 18:44 37.54158 -1.79500 32308 ft 435 kts 207°
2026-04-23 18:44 37.51464 -1.81232 31552 ft 436 kts 207°
2026-04-23 18:44 37.48754 -1.82974 30772 ft 438 kts 207°
2026-04-23 18:44 37.46035 -1.84720 29968 ft 440 kts 207°
2026-04-23 18:45 37.43302 -1.86473 28996 ft 442 kts 206°
2026-04-23 18:45 37.40554 -1.88235 28061 ft 443 kts 206°
2026-04-23 18:45 37.37803 -1.89997 27113 ft 445 kts 206°
2026-04-23 18:45 37.35040 -1.91766 26141 ft 446 kts 206°
2026-04-23 18:46 37.32279 -1.93533 25375 ft 444 kts 206°
2026-04-23 18:46 37.29572 -1.95262 24673 ft 440 kts 206°
2026-04-23 18:46 37.26881 -1.97043 23952 ft 436 kts 211°
2026-04-23 18:46 37.24583 -1.99516 23217 ft 436 kts 227°
2026-04-23 18:47 37.22953 -2.02455 22485 ft 435 kts 240°
2026-04-23 18:47 37.21676 -2.05880 21766 ft 431 kts 243°
2026-04-23 18:47 37.20475 -2.09302 21064 ft 426 kts 244°
2026-04-23 18:47 37.19294 -2.12688 20381 ft 421 kts 244°
2026-04-23 18:48 37.18119 -2.16026 19710 ft 417 kts 243°
2026-04-23 18:48 37.16941 -2.19324 19049 ft 412 kts 243°
2026-04-23 18:48 37.15765 -2.22586 18384 ft 409 kts 243°
2026-04-23 18:48 37.14594 -2.25813 17628 ft 405 kts 243°
2026-04-23 18:49 37.13428 -2.29011 16918 ft 401 kts 243°
2026-04-23 18:49 37.12272 -2.32178 16140 ft 398 kts 243°
2026-04-23 18:49 37.11125 -2.35316 15447 ft 395 kts 243°
2026-04-23 18:49 37.09984 -2.38438 14777 ft 393 kts 243°
2026-04-23 18:50 37.09216 -2.40536 14325 ft 392 kts 243°
2026-04-23 18:50 37.07717 -2.44628 13419 ft 389 kts 243°
2026-04-23 18:50 37.06595 -2.47689 12745 ft 386 kts 243°
2026-04-23 18:50 37.05480 -2.50730 12084 ft 382 kts 243°
2026-04-23 18:51 37.04374 -2.53741 11463 ft 379 kts 243°
2026-04-23 18:51 37.03282 -2.56712 11103 ft 369 kts 243°
2026-04-23 18:51 37.02227 -2.59576 10889 ft 356 kts 243°
2026-04-23 18:51 37.01208 -2.62336 10734 ft 343 kts 243°
2026-04-23 18:52 37.00225 -2.64997 10501 ft 333 kts 243°
2026-04-23 18:52 36.99291 -2.67520 10451 ft 324 kts 243°
2026-04-23 18:52 36.98360 -2.70035 10319 ft 313 kts 243°
2026-04-23 18:52 36.97463 -2.72457 10203 ft 299 kts 244°
2026-04-23 18:53 36.96608 -2.74766 10088 ft 287 kts 243°
2026-04-23 18:53 36.95516 -2.76786 9916 ft 279 kts 221°
2026-04-23 18:53 36.93851 -2.77981 9621 ft 277 kts 197°
2026-04-23 18:53 36.91958 -2.78312 9337 ft 276 kts 178°
2026-04-23 18:54 36.90082 -2.77852 9027 ft 275 kts 164°
2026-04-23 18:54 36.88260 -2.77144 8738 ft 274 kts 163°
2026-04-23 18:54 36.86447 -2.76425 8383 ft 276 kts 163°
2026-04-23 18:54 36.85222 -2.75941 8055 ft 281 kts 163°
2026-04-23 18:55 36.83335 -2.75208 7583 ft 287 kts 162°
2026-04-23 18:55 36.81408 -2.74469 7091 ft 293 kts 162°
2026-04-23 18:55 36.79482 -2.73683 6564 ft 289 kts 154°
2026-04-23 18:55 36.77916 -2.72185 6039 ft 283 kts 127°
2026-04-23 18:56 36.77059 -2.70026 5583 ft 276 kts 103°
2026-04-23 18:56 36.76894 -2.67689 5167 ft 265 kts 83°
2026-04-23 18:56 36.77285 -2.65672 4816 ft 246 kts 72°
2026-04-23 18:56 36.77807 -2.63688 4184 ft 238 kts 69°
2026-04-23 18:57 36.78311 -2.61799 3866 ft 223 kts 71°
2026-04-23 18:57 36.78764 -2.60008 3594 ft 210 kts 71°
2026-04-23 18:57 36.79177 -2.58328 3313 ft 195 kts 70°
2026-04-23 18:57 36.79560 -2.56761 3027 ft 182 kts 70°
2026-04-23 18:58 36.79916 -2.55303 2785 ft 169 kts 70°
2026-04-23 18:58 36.80244 -2.53953 2558 ft 156 kts 69°
2026-04-23 18:58 36.80546 -2.52716 2395 ft 142 kts 69°
2026-04-23 18:58 36.80832 -2.51545 2189 ft 139 kts 69°
2026-04-23 18:59 36.81110 -2.50412 2002 ft 135 kts 69°
2026-04-23 18:59 36.81381 -2.49303 1832 ft 134 kts 68°
2026-04-23 18:59 36.81659 -2.48174 1649 ft 138 kts 70°
2026-04-23 18:59 36.81938 -2.47033 1455 ft 137 kts 69°
2026-04-23 19:00 36.82217 -2.45897 1300 ft 137 kts 70°
2026-04-23 19:00 36.82494 -2.44761 1133 ft 137 kts 71°
2026-04-23 19:00 36.82774 -2.43618 946 ft 137 kts 73°
2026-04-23 19:00 36.82947 -2.42889 836 ft 139 kts 73°
2026-04-23 19:01 36.83117 -2.42195 718 ft 137 kts 73°
2026-04-23 19:01 36.83267 -2.41595 616 ft 133 kts 74°
2026-04-23 19:01 36.83412 -2.40998 476 ft 135 kts 71°
2026-04-23 19:01 36.83601 -2.40207 413 ft 143 kts 71°
2026-04-23 19:02 36.83763 -2.39567 301 ft 140 kts 71°
2026-04-23 19:02 36.83907 -2.38986 165 ft 134 kts 71°
2026-04-23 19:02 36.84062 -2.38355 68 ft 127 kts 71°
2026-04-23 19:02 36.84193 -2.37832 55 ft 115 kts 72°
2026-04-23 19:03 36.84324 -2.37299 56 ft 93 kts 73°
2026-04-23 19:03 36.84415 -2.36930 56 ft 68 kts 73°
2026-04-23 19:03 36.84480 -2.36660 54 ft 40 kts 73°
2026-04-23 19:03 36.84519 -2.36504 59 ft 18 kts 72°
2026-04-23 19:04 36.84546 -2.36394 58 ft 18 kts 74°
2026-04-23 19:04 36.84566 -2.36316 58 ft 19 kts 71°
2026-04-23 19:04 36.84597 -2.36197 54 ft 19 kts 72°
2026-04-23 19:04 36.84624 -2.36075 56 ft 17 kts 77°
2026-04-23 19:05 36.84655 -2.35947 56 ft 19 kts 72°
2026-04-23 19:05 36.84697 -2.35782 54 ft 25 kts 72°
2026-04-23 19:05 36.84753 -2.35552 60 ft 31 kts 72°
2026-04-23 19:05 36.84845 -2.35334 59 ft 18 kts 21°
2026-04-23 19:06 36.84937 -2.35364 61 ft 13 kts 307°
2026-04-23 19:06 36.84945 -2.35471 64 ft 12 kts 255°
2026-04-23 19:06 36.84920 -2.35582 62 ft 15 kts 252°
2026-04-23 19:06 36.84882 -2.35733 62 ft 22 kts 252°
2026-04-23 19:07 36.84830 -2.35944 64 ft 28 kts 253°
2026-04-23 19:07 36.84772 -2.36179 65 ft 27 kts 254°
2026-04-23 19:07 36.84723 -2.36380 61 ft 26 kts 253°
2026-04-23 19:07 36.84671 -2.36594 65 ft 25 kts 254°
2026-04-23 19:08 36.84625 -2.36786 64 ft 20 kts 252°
2026-04-23 19:08 36.84638 -2.36923 57 ft 15 kts 304°
2026-04-23 19:08 36.84638 -2.37038 58 ft 11 kts 251°
2026-04-23 19:08 36.84618 -2.37118 64 ft 9 kts 253°
2026-04-23 19:09 36.84618 -2.37168 67 ft 2 kts 330°
2026-04-23 19:09 36.84628 -2.37171 61 ft 2 kts 344°
2026-04-23 19:09 36.84666 -2.37185 65 ft 10 kts 342°
2026-04-23 19:09 36.84688 -2.37165 68 ft 5 kts 134°
2026-04-23 19:10 36.84672 -2.37152 64 ft 2 kts 146°
2026-04-23 19:10 36.84668 -2.37150 68 ft 0 kts 147°